Time,TemperatureF,DewpointF,PressureIn,WindDirection,WindDirectionDegrees,WindSpeedMPH,WindSpeedGustMPH,Humidity,HourlyPrecipIn,Conditions,Clouds,dailyrainin,SoftwareType,DateUTC
2013-07-21 00:01:00,72.1,35.3,26.95,NW,315,0.0,0.0,26,0.00,CLR,,0.00,WeatherDisplay:10.37,2013-07-21 04:01:00,
2013-07-21 00:02:00,72.1,35.3,26.95,NW,315,0.0,0.0,26,0.00,CLR,,0.00,WeatherDisplay:10.37,2013-07-21 04:02:00,
2013-07-21 00:07:00,72.0,35.2,26.95,NW,315,0.0,0.0,26,0.00,CLR,,0.00,WeatherDisplay:10.37,2013-07-21 04:07:00,
2013-07-21 00:12:00,72.0,35.2,26.95,NW,315,0.0,0.0,26,0.00,CLR,,0.00,WeatherDisplay:10.37,2013-07-21 04:12:00,
2013-07-21 00:17:00,72.1,35.3,26.95,NW,315,0.0,0.0,26,0.00,CLR,,0.00,WeatherDisplay:10.37,2013-07-21 04:17:00,
2013-07-21 00:22:00,72.1,35.3,26.95,NW,315,0.0,0.0,26,0.00,CLR,,0.00,WeatherDisplay:10.37,2013-07-21 04:22:00,
2013-07-21 00:27:00,72.0,35.2,26.95,NW,315,0.0,0.0,26,0.00,CLR,,0.00,WeatherDisplay:10.37,2013-07-21 04:27:00,
2013-07-21 00:32:00,71.8,37.8,26.95,NW,315,0.0,0.0,29,0.00,CLR,,0.00,WeatherDisplay:10.37,2013-07-21 04:32:00,
2013-07-21 00:37:00,71.6,37.6,26.95,NW,315,0.0,0.0,29,0.00,CLR,,0.00,WeatherDisplay:10.37,2013-07-21 04:37:00,
2013-07-21 00:42:00,71.2,37.3,26.95,NW,315,0.0,0.0,29,0.00,CLR,,0.00,WeatherDisplay:10.37,2013-07-21 04:42:00,
2013-07-21 00:47:00,71.2,37.3,26.95,NW,315,0.0,0.0,29,0.00,CLR,,0.00,WeatherDisplay:10.37,2013-07-21 04:47:00,
2013-07-21 00:52:00,71.2,37.3,26.95,NW,315,0.0,0.0,29,0.00,CLR,,0.00,WeatherDisplay:10.37,2013-07-21 04:52:00,
2013-07-21 00:57:00,71.1,37.2,26.95,NW,315,0.0,0.0,29,0.00,CLR,,0.00,WeatherDisplay:10.37,2013-07-21 04:57:00,
2013-07-21 01:02:00,71.1,37.2,26.95,NW,315,0.0,0.0,29,0.00,CLR,,0.00,WeatherDisplay:10.37,2013-07-21 05:02:00,
2013-07-21 01:07:00,71.1,37.2,26.95,NW,315,0.0,0.0,29,0.00,CLR,,0.00,WeatherDisplay:10.37,2013-07-21 05:07:00,
2013-07-21 01:12:00,71.1,37.2,26.95,NW,315,0.0,0.0,29,0.00,CLR,,0.00,WeatherDisplay:10.37,2013-07-21 05:12:00,
2013-07-21 01:17:00,70.9,37.0,26.95,NW,315,0.0,0.0,29,0.00,CLR,,0.00,WeatherDisplay:10.37,2013-07-21 05:17:00,
2013-07-21 01:22:00,70.7,36.9,26.95,NW,315,0.0,0.0,29,0.00,CLR,,0.00,WeatherDisplay:10.37,2013-07-21 05:22:00,
2013-07-21 01:27:00,70.5,36.7,26.95,NW,315,0.0,0.0,29,0.00,CLR,,0.00,WeatherDisplay:10.37,2013-07-21 05:27:00,
2013-07-21 01:32:00,70.5,36.7,26.95,NW,315,0.0,0.0,29,0.00,CLR,,0.00,WeatherDisplay:10.37,2013-07-21 05:32:00,
2013-07-21 01:37:00,70.5,36.7,26.95,NW,315,0.0,0.0,29,0.00,CLR,,0.00,WeatherDisplay:10.37,2013-07-21 05:37:00,
2013-07-21 01:42:00,70.5,39.2,26.95,NW,315,0.0,0.0,32,0.00,CLR,,0.00,WeatherDisplay:10.37,2013-07-21 05:42:00,
2013-07-21 01:47:00,70.3,39.1,26.95,NW,315,0.0,0.0,32,0.00,CLR,,0.00,WeatherDisplay:10.37,2013-07-21 05:47:00,
2013-07-21 01:52:00,70.2,38.9,26.95,NW,315,0.0,0.0,32,0.00,CLR,,0.00,WeatherDisplay:10.37,2013-07-21 05:52:00,
2013-07-21 01:57:00,70.2,38.9,26.95,NW,315,0.0,0.0,32,0.00,CLR,,0.00,WeatherDisplay:10.37,2013-07-21 05:57:00,
2013-07-21 02:02:00,70.0,38.8,26.95,NW,315,0.0,0.0,32,0.00,CLR,,0.00,WeatherDisplay:10.37,2013-07-21 06:02:00,
2013-07-21 02:07:00,69.8,38.6,26.95,NW,315,0.0,0.0,32,0.00,CLR,,0.00,WeatherDisplay:10.37,2013-07-21 06:07:00,
2013-07-21 02:12:00,69.6,38.4,26.95,NW,315,0.0,0.0,32,0.00,CLR,,0.00,WeatherDisplay:10.37,2013-07-21 06:12:00,
2013-07-21 02:17:00,69.4,38.3,26.95,NW,315,0.0,0.0,32,0.00,CLR,,0.00,WeatherDisplay:10.37,2013-07-21 06:17:00,
2013-07-21 02:22:00,69.3,38.1,26.95,NW,315,0.0,0.0,32,0.00,CLR,,0.00,WeatherDisplay:10.37,2013-07-21 06:22:00,
2013-07-21 02:27:00,69.3,38.1,26.95,NW,315,0.0,0.0,32,0.00,CLR,,0.00,WeatherDisplay:10.37,2013-07-21 06:27:00,
2013-07-21 02:32:00,69.1,38.8,26.95,NW,315,0.0,0.0,33,0.00,CLR,,0.00,WeatherDisplay:10.37,2013-07-21 06:32:00,
2013-07-21 02:37:00,68.9,38.6,26.95,NW,315,0.0,0.0,33,0.00,CLR,,0.00,WeatherDisplay:10.37,2013-07-21 06:37:00,
2013-07-21 02:42:00,68.7,38.4,26.95,NW,315,0.0,0.0,33,0.00,CLR,,0.00,WeatherDisplay:10.37,2013-07-21 06:42:00,
2013-07-21 02:47:00,68.4,38.1,26.95,NW,315,0.0,0.0,33,0.00,CLR,,0.00,WeatherDisplay:10.37,2013-07-21 06:47:00,
2013-07-21 02:52:00,68.4,38.1,26.95,NW,315,0.0,0.0,33,0.00,CLR,,0.00,WeatherDisplay:10.37,2013-07-21 06:52:00,
2013-07-21 02:57:00,68.2,38.7,26.95,NW,315,0.0,0.0,34,0.00,CLR,,0.00,WeatherDisplay:10.37,2013-07-21 06:57:00,
2013-07-21 03:02:00,67.8,39.2,26.95,NW,315,0.0,0.0,35,0.00,CLR,,0.00,WeatherDisplay:10.37,2013-07-21 07:02:00,
2013-07-21 03:07:00,67.8,39.2,26.95,NW,315,0.0,0.0,35,0.00,CLR,,0.00,WeatherDisplay:10.37,2013-07-21 07:07:00,
2013-07-21 03:12:00,67.8,39.2,26.95,NW,315,0.0,0.0,35,0.00,CLR,,0.00,WeatherDisplay:10.37,2013-07-21 07:12:00,
2013-07-21 03:17:00,67.6,39.7,26.95,NW,315,0.0,0.0,36,0.00,CLR,,0.00,WeatherDisplay:10.37,2013-07-21 07:17:00,
2013-07-21 03:22:00,67.6,39.7,26.95,NW,315,0.0,0.0,36,0.00,CLR,,0.00,WeatherDisplay:10.37,2013-07-21 07:22:00,
2013-07-21 03:27:00,67.5,39.6,26.95,NW,315,0.0,0.0,36,0.00,CLR,,0.00,WeatherDisplay:10.37,2013-07-21 07:27:00,
2013-07-21 03:32:00,67.5,40.3,26.95,NW,315,0.0,0.0,37,0.00,CLR,,0.00,WeatherDisplay:10.37,2013-07-21 07:32:00,
2013-07-21 03:37:00,67.3,40.1,26.95,NW,315,0.0,0.0,37,0.00,CLR,,0.00,WeatherDisplay:10.37,2013-07-21 07:37:00,
2013-07-21 03:42:00,67.1,39.9,26.95,NW,315,0.0,0.0,37,0.00,CLR,,0.00,WeatherDisplay:10.37,2013-07-21 07:42:00,
2013-07-21 03:47:00,66.9,39.8,26.95,NW,315,0.0,0.0,37,0.00,CLR,,0.00,WeatherDisplay:10.37,2013-07-21 07:47:00,
2013-07-21 03:52:00,66.9,40.5,26.95,NW,315,0.0,0.0,38,0.00,CLR,,0.00,WeatherDisplay:10.37,2013-07-21 07:52:00,
2013-07-21 03:57:00,66.7,41.0,26.95,NW,315,0.0,0.0,39,0.00,CLR,,0.00,WeatherDisplay:10.37,2013-07-21 07:57:00,
2013-07-21 04:02:00,66.6,40.8,26.95,NW,315,0.0,0.0,39,0.00,CLR,,0.00,WeatherDisplay:10.37,2013-07-21 08:02:00,
2013-07-21 04:07:00,66.6,41.5,26.95,NW,315,0.0,0.0,40,0.00,CLR,,0.00,WeatherDisplay:10.37,2013-07-21 08:07:00,
2013-07-21 04:12:00,66.4,42.0,26.95,NW,315,0.0,0.0,41,0.00,CLR,,0.00,WeatherDisplay:10.37,2013-07-21 08:12:00,
2013-07-21 04:17:00,66.4,42.6,26.95,NW,315,0.0,0.0,42,0.00,CLR,,0.00,WeatherDisplay:10.37,2013-07-21 08:17:00,
2013-07-21 04:22:00,66.2,42.4,26.95,NW,315,0.0,0.0,42,0.00,CLR,,0.00,WeatherDisplay:10.37,2013-07-21 08:22:00,
2013-07-21 04:27:00,66.2,43.0,26.95,NW,315,0.0,0.0,43,0.00,CLR,,0.00,WeatherDisplay:10.37,2013-07-21 08:27:00,
2013-07-21 04:32:00,66.2,43.0,26.95,NW,315,0.0,0.0,43,0.00,CLR,,0.00,WeatherDisplay:10.37,2013-07-21 08:32:00,
2013-07-21 04:37:00,66.0,42.9,26.95,NW,315,0.0,0.0,43,0.00,CLR,,0.00,WeatherDisplay:10.37,2013-07-21 08:37:00,
2013-07-21 04:42:00,66.0,43.5,26.95,NW,315,0.0,0.0,44,0.00,CLR,,0.00,WeatherDisplay:10.37,2013-07-21 08:42:00,
2013-07-21 04:47:00,65.8,43.3,26.95,NW,315,0.0,0.0,44,0.00,CLR,,0.00,WeatherDisplay:10.37,2013-07-21 08:47:00,
2013-07-21 04:52:00,65.8,43.3,26.95,NW,315,0.0,0.0,44,0.00,CLR,,0.00,WeatherDisplay:10.37,2013-07-21 08:52:00,
2013-07-21 04:57:00,65.8,43.3,26.95,NW,315,0.0,0.0,44,0.00,CLR,,0.00,WeatherDisplay:10.37,2013-07-21 08:57:00,
2013-07-21 05:02:00,65.8,43.3,26.95,NW,315,0.0,0.0,44,0.00,CLR,,0.00,WeatherDisplay:10.37,2013-07-21 09:02:00,
2013-07-21 05:07:00,65.8,43.3,26.95,NW,315,0.0,0.0,44,0.00,CLR,,0.00,WeatherDisplay:10.37,2013-07-21 09:07:00,
2013-07-21 05:12:00,65.8,43.3,26.95,NW,315,0.0,0.0,44,0.00,CLR,,0.00,WeatherDisplay:10.37,2013-07-21 09:12:00,
2013-07-21 05:17:00,65.8,43.3,26.95,NW,315,0.0,0.0,44,0.00,CLR,,0.00,WeatherDisplay:10.37,2013-07-21 09:17:00,
2013-07-21 05:22:00,65.8,43.3,26.95,NW,315,0.0,0.0,44,0.00,CLR,,0.00,WeatherDisplay:10.37,2013-07-21 09:22:00,
2013-07-21 05:27:00,65.7,43.7,26.95,NW,315,0.0,0.0,45,0.00,CLR,,0.00,WeatherDisplay:10.37,2013-07-21 09:27:00,
2013-07-21 05:32:00,65.7,43.7,26.95,NW,315,0.0,0.0,45,0.00,CLR,,0.00,WeatherDisplay:10.37,2013-07-21 09:32:00,
2013-07-21 05:37:00,65.7,43.7,26.95,NW,315,0.0,0.0,45,0.00,CLR,,0.00,WeatherDisplay:10.37,2013-07-21 09:37:00,
2013-07-21 05:42:00,65.7,43.7,26.95,NW,315,0.0,0.0,45,0.00,CLR,,0.00,WeatherDisplay:10.37,2013-07-21 09:42:00,
2013-07-21 05:47:00,65.8,43.9,26.95,NW,315,0.0,0.0,45,0.00,CLR,,0.00,WeatherDisplay:10.37,2013-07-21 09:47:00,
2013-07-21 05:52:00,66.0,44.6,26.95,NW,315,0.0,0.0,46,0.00,CLR,,0.00,WeatherDisplay:10.37,2013-07-21 09:52:00,
2013-07-21 05:57:00,66.0,44.1,26.95,NW,315,0.0,0.0,45,0.00,CLR,,0.00,WeatherDisplay:10.37,2013-07-21 09:57:00,
2013-07-21 06:02:00,65.8,43.9,26.95,NW,315,0.0,0.0,45,0.00,CLR,,0.00,WeatherDisplay:10.37,2013-07-21 10:02:00,
2013-07-21 06:07:00,65.8,44.5,26.95,NW,315,0.0,0.0,46,0.00,CLR,,0.00,WeatherDisplay:10.37,2013-07-21 10:07:00,
2013-07-21 06:12:00,66.0,44.6,26.95,NW,315,0.0,0.0,46,0.00,CLR,,0.00,WeatherDisplay:10.37,2013-07-21 10:12:00,
2013-07-21 06:17:00,66.0,44.6,26.95,NW,315,0.0,0.0,46,0.00,CLR,,0.00,WeatherDisplay:10.37,2013-07-21 10:17:00,
2013-07-21 06:22:00,66.2,44.2,26.95,NW,315,0.0,0.0,45,0.00,CLR,,0.00,WeatherDisplay:10.37,2013-07-21 10:22:00,
2013-07-21 06:27:00,66.4,44.4,26.95,NW,315,0.0,0.0,45,0.00,CLR,,0.00,WeatherDisplay:10.37,2013-07-21 10:27:00,
2013-07-21 06:32:00,66.6,44.5,26.95,NW,315,0.0,0.0,45,0.00,CLR,,0.00,WeatherDisplay:10.37,2013-07-21 10:32:00,
2013-07-21 06:37:00,66.7,44.7,26.95,NW,315,0.0,0.0,45,0.00,CLR,,0.00,WeatherDisplay:10.37,2013-07-21 10:37:00,
2013-07-21 06:42:00,66.9,44.9,26.95,NW,315,0.0,0.0,45,0.00,CLR,,0.00,WeatherDisplay:10.37,2013-07-21 10:42:00,
2013-07-21 06:47:00,67.1,45.0,26.95,NW,315,0.0,0.0,45,0.00,CLR,,0.00,WeatherDisplay:10.37,2013-07-21 10:47:00,
2013-07-21 06:52:00,67.5,45.9,26.95,NW,315,0.0,0.0,46,0.00,CLR,,0.00,WeatherDisplay:10.37,2013-07-21 10:52:00,
2013-07-21 06:57:00,67.8,45.7,26.95,NW,315,0.0,0.0,45,0.00,CLR,,0.00,WeatherDisplay:10.37,2013-07-21 10:57:00,
2013-07-21 07:02:00,68.0,45.9,26.95,NW,315,0.0,0.0,45,0.00,CLR,,0.00,WeatherDisplay:10.37,2013-07-21 11:02:00,
2013-07-21 07:07:00,68.4,46.2,26.95,NW,315,0.0,0.0,45,0.00,CLR,,0.00,WeatherDisplay:10.37,2013-07-21 11:07:00,
2013-07-21 07:12:00,68.7,46.5,26.95,NW,315,0.0,0.0,45,0.00,CLR,,0.00,WeatherDisplay:10.37,2013-07-21 11:12:00,
2013-07-21 07:17:00,69.3,46.4,26.95,NW,315,0.0,0.0,44,0.00,CLR,,0.00,WeatherDisplay:10.37,2013-07-21 11:17:00,
2013-07-21 07:22:00,69.6,46.7,26.95,NW,315,0.0,0.0,44,0.00,CLR,,0.00,WeatherDisplay:10.37,2013-07-21 11:22:00,
2013-07-21 07:27:00,70.0,46.4,26.95,NW,315,0.0,0.0,43,0.00,CLR,,0.00,WeatherDisplay:10.37,2013-07-21 11:27:00,
2013-07-21 07:32:00,70.3,46.8,26.95,NW,315,0.0,0.0,43,0.00,CLR,,0.00,WeatherDisplay:10.37,2013-07-21 11:32:00,
2013-07-21 07:37:00,70.5,46.3,26.95,NW,315,0.0,0.0,42,0.00,CLR,,0.00,WeatherDisplay:10.37,2013-07-21 11:37:00,
2013-07-21 07:42:00,71.1,42.0,26.95,NW,315,0.0,0.0,35,0.00,CLR,,0.00,WeatherDisplay:10.37,2013-07-21 11:42:00,
2013-07-21 07:47:00,71.6,41.7,26.95,NW,315,0.0,0.0,34,0.00,CLR,,0.00,WeatherDisplay:10.37,2013-07-21 11:47:00,
2013-07-21 07:52:00,71.8,40.3,26.95,NW,315,0.0,0.0,32,0.00,CLR,,0.00,WeatherDisplay:10.37,2013-07-21 11:52:00,
2013-07-21 07:57:00,72.1,40.6,26.95,NW,315,0.0,0.0,32,0.00,CLR,,0.00,WeatherDisplay:10.37,2013-07-21 11:57:00,
2013-07-21 08:02:00,72.7,41.1,26.95,NW,315,0.0,0.0,32,0.00,CLR,,0.00,WeatherDisplay:10.37,2013-07-21 12:02:00,
2013-07-21 08:07:00,72.9,40.4,26.95,NW,318,2.3,0.0,31,0.00,CLR,,0.00,WeatherDisplay:10.37,2013-07-21 12:07:00,
2013-07-21 08:12:00,73.0,38.9,26.95,NW,318,0.0,0.0,29,0.00,CLR,,0.00,WeatherDisplay:10.37,2013-07-21 12:12:00,
2013-07-21 08:17:00,73.8,36.7,26.95,ESE,106,2.3,0.0,26,0.00,CLR,,0.00,WeatherDisplay:10.37,2013-07-21 12:17:00,
2013-07-21 08:22:00,73.8,36.7,26.95,ESE,122,2.3,0.0,26,0.00,CLR,,0.00,WeatherDisplay:10.37,2013-07-21 12:22:00,
2013-07-21 08:27:00,73.6,36.6,26.95,ESE,104,0.0,0.0,26,0.00,CLR,,0.00,WeatherDisplay:10.37,2013-07-21 12:27:00,
2013-07-21 08:32:00,73.9,36.9,26.95,ESE,104,0.0,0.0,26,0.00,CLR,,0.00,WeatherDisplay:10.37,2013-07-21 12:32:00,
2013-07-21 08:37:00,74.5,37.3,26.95,ESE,106,0.0,0.0,26,0.00,CLR,,0.00,WeatherDisplay:10.37,2013-07-21 12:37:00,
2013-07-21 08:42:00,74.3,37.2,26.95,ESE,105,0.0,0.0,26,0.00,CLR,,0.00,WeatherDisplay:10.37,2013-07-21 12:42:00,
2013-07-21 08:47:00,74.3,37.2,26.95,WSW,258,2.3,0.0,26,0.00,CLR,,0.00,WeatherDisplay:10.37,2013-07-21 12:47:00,
2013-07-21 08:52:00,74.5,37.3,26.95,SW,214,0.0,0.0,26,0.00,CLR,,0.00,WeatherDisplay:10.37,2013-07-21 12:52:00,
2013-07-21 08:57:00,74.7,37.5,26.95,SE,128,0.0,0.0,26,0.00,CLR,,0.00,WeatherDisplay:10.37,2013-07-21 12:57:00,
2013-07-21 09:02:00,75.2,36.9,26.95,ESE,106,2.3,0.0,25,0.00,CLR,,0.00,WeatherDisplay:10.37,2013-07-21 13:02:00,
2013-07-21 09:07:00,75.6,37.2,26.95,SE,135,3.5,3.5,25,0.00,CLR,,0.00,WeatherDisplay:10.37,2013-07-21 13:07:00,
2013-07-21 09:12:00,75.4,37.1,26.95,SE,127,2.3,0.0,25,0.00,CLR,,0.00,WeatherDisplay:10.37,2013-07-21 13:12:00,
2013-07-21 09:17:00,75.4,37.1,26.95,ESE,109,0.0,0.0,25,0.00,CLR,,0.00,WeatherDisplay:10.37,2013-07-21 13:17:00,
2013-07-21 09:22:00,75.7,37.4,26.95,ESE,109,0.0,0.0,25,0.00,CLR,,0.00,WeatherDisplay:10.37,2013-07-21 13:22:00,
2013-07-21 09:27:00,75.7,37.4,26.95,ESE,109,0.0,0.0,25,0.00,CLR,,0.00,WeatherDisplay:10.37,2013-07-21 13:27:00,
2013-07-21 09:32:00,75.7,37.4,26.95,SE,124,2.3,0.0,25,0.00,CLR,,0.00,WeatherDisplay:10.37,2013-07-21 13:32:00,
2013-07-21 09:37:00,75.7,37.4,26.95,East,99,3.5,0.0,25,0.00,CLR,,0.00,WeatherDisplay:10.37,2013-07-21 13:37:00,
2013-07-21 09:42:00,75.6,37.2,26.95,East,101,0.0,0.0,25,0.00,CLR,,0.00,WeatherDisplay:10.37,2013-07-21 13:42:00,
2013-07-21 09:47:00,75.7,37.4,26.95,SSE,158,0.0,0.0,25,0.00,CLR,,0.00,WeatherDisplay:10.37,2013-07-21 13:47:00,
2013-07-21 09:52:00,75.9,37.6,26.95,SSW,200,2.3,0.0,25,0.00,CLR,,0.00,WeatherDisplay:10.37,2013-07-21 13:52:00,
2013-07-21 09:57:00,76.5,38.0,26.95,East,92,2.3,0.0,25,0.00,CLR,,0.00,WeatherDisplay:10.37,2013-07-21 13:57:00,
2013-07-21 10:02:00,77.7,37.0,26.95,East,99,2.3,2.3,23,0.00,CLR,,0.00,WeatherDisplay:10.37,2013-07-21 14:02:00,
2013-07-21 10:07:00,77.5,36.8,26.95,SSE,153,0.0,0.0,23,0.00,CLR,,0.00,WeatherDisplay:10.37,2013-07-21 14:07:00,
2013-07-21 10:12:00,76.8,36.2,26.95,ESE,119,3.5,3.5,23,0.00,CLR,,0.00,WeatherDisplay:10.37,2013-07-21 14:12:00,
2013-07-21 10:17:00,76.8,36.2,26.95,ESE,117,2.3,0.0,23,0.00,CLR,,0.00,WeatherDisplay:10.37,2013-07-21 14:17:00,
2013-07-21 10:22:00,77.0,36.3,26.95,East,86,0.0,0.0,23,0.00,CLR,,0.00,WeatherDisplay:10.37,2013-07-21 14:22:00,
2013-07-21 10:27:00,77.4,36.6,26.95,ESE,121,0.0,0.0,23,0.00,CLR,,0.00,WeatherDisplay:10.37,2013-07-21 14:27:00,
2013-07-21 10:32:00,77.5,36.8,26.95,South,182,3.5,3.5,23,0.00,CLR,,0.00,WeatherDisplay:10.37,2013-07-21 14:32:00,
2013-07-21 10:37:00,77.7,37.0,26.95,ESE,113,2.7,0.0,23,0.00,CLR,,0.00,WeatherDisplay:10.37,2013-07-21 14:37:00,
2013-07-21 10:42:00,77.9,37.1,26.95,East,95,2.3,0.0,23,0.00,CLR,,0.00,WeatherDisplay:10.37,2013-07-21 14:42:00,
2013-07-21 10:47:00,77.9,37.1,26.95,ESE,123,3.5,0.0,23,0.00,CLR,,0.00,WeatherDisplay:10.37,2013-07-21 14:47:00,
2013-07-21 10:52:00,78.3,37.4,26.95,SSW,194,2.2,0.0,23,0.00,CLR,,0.00,WeatherDisplay:10.37,2013-07-21 14:52:00,
2013-07-21 10:57:00,78.3,37.4,26.95,ENE,61,0.0,0.0,23,0.00,CLR,,0.00,WeatherDisplay:10.37,2013-07-21 14:57:00,
2013-07-21 11:02:00,78.3,37.4,26.95,South,183,0.0,0.0,23,0.00,CLR,,0.00,WeatherDisplay:10.37,2013-07-21 15:02:00,
2013-07-21 11:07:00,78.1,37.3,26.95,SE,143,3.5,0.0,23,0.00,CLR,,0.00,WeatherDisplay:10.37,2013-07-21 15:07:00,
2013-07-21 11:12:00,77.9,37.1,26.95,East,89,2.3,0.0,23,0.00,CLR,,0.00,WeatherDisplay:10.37,2013-07-21 15:12:00,
2013-07-21 11:17:00,78.1,37.3,26.95,ESE,113,2.3,0.0,23,0.00,CLR,,0.00,WeatherDisplay:10.37,2013-07-21 15:17:00,
2013-07-21 11:22:00,78.3,37.4,26.95,East,81,2.3,2.3,23,0.00,CLR,,0.00,WeatherDisplay:10.37,2013-07-21 15:22:00,
2013-07-21 11:27:00,78.6,37.7,26.95,East,81,2.3,0.0,23,0.00,CLR,,0.00,WeatherDisplay:10.37,2013-07-21 15:27:00,
2013-07-21 11:32:00,78.8,36.7,26.95,East,80,2.3,0.0,22,0.00,CLR,,0.00,WeatherDisplay:10.37,2013-07-21 15:32:00,
2013-07-21 11:38:00,79.2,37.0,26.95,ESE,106,2.3,0.0,22,0.00,CLR,,0.00,WeatherDisplay:10.37,2013-07-21 15:38:00,
2013-07-21 11:43:00,78.8,36.7,26.95,East,101,0.0,0.0,22,0.00,CLR,,0.00,WeatherDisplay:10.37,2013-07-21 15:43:00,
2013-07-21 11:48:00,79.5,37.3,26.95,East,101,0.0,0.0,22,0.00,CLR,,0.00,WeatherDisplay:10.37,2013-07-21 15:48:00,
2013-07-21 11:53:00,80.6,38.2,26.95,SE,126,3.5,3.5,22,0.00,CLR,,0.00,WeatherDisplay:10.37,2013-07-21 15:53:00,
2013-07-21 11:58:00,81.9,39.3,26.95,ENE,72,2.3,0.0,22,0.00,CLR,,0.00,WeatherDisplay:10.37,2013-07-21 15:58:00,
2013-07-21 12:03:00,82.4,38.5,26.95,ESE,114,3.5,3.5,21,0.00,CLR,,0.00,WeatherDisplay:10.37,2013-07-21 16:03:00,
2013-07-21 12:08:00,82.2,39.6,26.95,ESE,112,0.0,0.0,22,0.00,CLR,,0.00,WeatherDisplay:10.37,2013-07-21 16:08:00,
2013-07-21 12:13:00,82.8,38.8,26.95,ESE,123,3.5,3.5,21,0.00,CLR,,0.00,WeatherDisplay:10.37,2013-07-21 16:13:00,
2013-07-21 12:18:00,85.6,41.2,26.95,ESE,118,0.0,0.0,21,0.00,CLR,,0.00,WeatherDisplay:10.37,2013-07-21 16:18:00,
2013-07-21 12:23:00,87.8,41.7,26.95,East,89,3.5,0.0,20,0.00,CLR,,0.00,WeatherDisplay:10.37,2013-07-21 16:23:00,
2013-07-21 12:28:00,87.6,42.9,26.95,NNE,25,3.5,0.0,21,0.00,CLR,,0.00,WeatherDisplay:10.37,2013-07-21 16:28:00,
2013-07-21 12:33:00,86.4,41.8,26.95,ESE,110,3.5,0.0,21,0.00,CLR,,0.00,WeatherDisplay:10.37,2013-07-21 16:33:00,
2013-07-21 12:38:00,84.4,40.2,26.95,SE,137,3.5,3.5,21,0.00,CLR,,0.00,WeatherDisplay:10.37,2013-07-21 16:38:00,
2013-07-21 12:43:00,82.8,38.8,26.95,East,91,0.0,0.0,21,0.00,CLR,,0.00,WeatherDisplay:10.37,2013-07-21 16:43:00,
2013-07-21 12:48:00,81.7,41.4,26.95,ESE,114,0.0,0.0,24,0.00,CLR,,0.00,WeatherDisplay:10.37,2013-07-21 16:48:00,
2013-07-21 12:53:00,80.8,38.4,26.95,East,88,2.3,0.0,22,0.00,CLR,,0.00,WeatherDisplay:10.37,2013-07-21 16:53:00,
2013-07-21 12:58:00,80.1,37.8,26.95,ESE,113,3.5,0.0,22,0.00,CLR,,0.00,WeatherDisplay:10.37,2013-07-21 16:58:00,
2013-07-21 13:03:00,79.7,37.5,26.95,East,98,3.5,3.5,22,0.00,CLR,,0.00,WeatherDisplay:10.37,2013-07-21 17:03:00,
2013-07-21 13:08:00,79.2,37.0,26.95,ESE,104,3.5,0.0,22,0.00,CLR,,0.00,WeatherDisplay:10.37,2013-07-21 17:08:00,
2013-07-21 13:13:00,79.2,37.0,26.95,ESE,123,3.5,0.0,22,0.00,CLR,,0.00,WeatherDisplay:10.37,2013-07-21 17:13:00,
2013-07-21 13:18:00,78.4,37.6,26.95,East,91,3.5,3.5,23,0.00,CLR,,0.00,WeatherDisplay:10.37,2013-07-21 17:18:00,
2013-07-21 13:23:00,77.5,36.8,26.95,SE,124,3.5,0.0,23,0.00,CLR,,0.00,WeatherDisplay:10.37,2013-07-21 17:23:00,
2013-07-21 13:28:00,77.2,36.5,26.95,East,93,2.7,0.0,23,0.00,CLR,,0.00,WeatherDisplay:10.37,2013-07-21 17:28:00,
2013-07-21 13:33:00,77.0,38.5,26.95,ESE,102,2.3,0.0,25,0.00,CLR,,0.00,WeatherDisplay:10.37,2013-07-21 17:33:00,
2013-07-21 13:38:00,76.5,35.9,26.95,East,87,0.0,0.0,23,0.00,CLR,,0.00,WeatherDisplay:10.37,2013-07-21 17:38:00,
2013-07-21 13:43:00,76.1,35.6,26.95,ESE,117,2.3,0.0,23,0.00,CLR,,0.00,WeatherDisplay:10.37,2013-07-21 17:43:00,
2013-07-21 13:48:00,75.7,35.3,26.95,SSW,196,0.0,0.0,23,0.00,CLR,,0.00,WeatherDisplay:10.37,2013-07-21 17:48:00,
2013-07-21 13:53:00,75.4,35.0,26.95,East,97,2.3,0.0,23,0.00,CLR,,0.00,WeatherDisplay:10.37,2013-07-21 17:53:00,
2013-07-21 13:58:00,75.2,34.8,26.95,East,97,2.3,0.0,23,0.00,CLR,,0.00,WeatherDisplay:10.37,2013-07-21 17:58:00,
2013-07-21 14:03:00,74.8,34.5,26.95,ESE,108,2.3,0.0,23,0.00,CLR,,0.00,WeatherDisplay:10.37,2013-07-21 18:03:00,
2013-07-21 14:08:00,74.5,34.2,26.95,ESE,108,0.0,0.0,23,0.00,CLR,,0.00,WeatherDisplay:10.37,2013-07-21 18:08:00,
2013-07-21 14:13:00,74.5,34.2,26.95,East,99,0.0,0.0,23,0.00,CLR,,0.00,WeatherDisplay:10.37,2013-07-21 18:13:00,
2013-07-21 14:18:00,74.7,34.4,26.95,SSE,162,0.0,0.0,23,0.00,CLR,,0.00,WeatherDisplay:10.37,2013-07-21 18:18:00,
2013-07-21 14:23:00,78.3,37.4,26.95,SE,127,2.3,0.0,23,0.00,CLR,,0.00,WeatherDisplay:10.37,2013-07-21 18:23:00,
2013-07-21 14:28:00,82.8,38.8,26.95,SE,135,2.2,0.0,21,0.00,CLR,,0.00,WeatherDisplay:10.37,2013-07-21 18:28:00,
2013-07-21 14:33:00,85.5,41.1,26.95,ESE,107,3.5,3.5,21,0.00,CLR,,0.00,WeatherDisplay:10.37,2013-07-21 18:33:00,
2013-07-21 14:38:00,80.4,38.1,26.95,ESE,105,3.5,3.5,22,0.00,CLR,,0.00,WeatherDisplay:10.37,2013-07-21 18:38:00,
2013-07-21 14:43:00,77.9,37.1,26.95,ESE,113,3.5,3.5,23,0.00,CLR,,0.00,WeatherDisplay:10.37,2013-07-21 18:43:00,
2013-07-21 14:48:00,77.7,37.0,26.95,ENE,75,2.7,0.0,23,0.00,CLR,,0.00,WeatherDisplay:10.37,2013-07-21 18:48:00,
2013-07-21 14:53:00,77.7,37.0,26.95,SE,127,2.3,0.0,23,0.00,CLR,,0.00,WeatherDisplay:10.37,2013-07-21 18:53:00,
2013-07-21 14:58:00,77.2,36.5,26.95,ENE,76,0.0,0.0,23,0.00,CLR,,0.00,WeatherDisplay:10.37,2013-07-21 18:58:00,
2013-07-21 15:03:00,77.0,36.3,26.95,ENE,76,0.0,0.0,23,0.00,CLR,,0.00,WeatherDisplay:10.37,2013-07-21 19:03:00,
2013-07-21 15:08:00,77.0,36.3,26.95,ESE,117,2.3,0.0,23,0.00,CLR,,0.00,WeatherDisplay:10.37,2013-07-21 19:08:00,
2013-07-21 15:13:00,77.0,36.3,26.95,ESE,117,0.0,0.0,23,0.00,CLR,,0.00,WeatherDisplay:10.37,2013-07-21 19:13:00,
2013-07-21 15:18:00,76.8,38.3,26.95,ESE,117,0.0,0.0,25,0.00,CLR,,0.00,WeatherDisplay:10.37,2013-07-21 19:18:00,
2013-07-21 15:23:00,76.5,35.9,26.95,ESE,117,0.0,0.0,23,0.00,CLR,,0.00,WeatherDisplay:10.37,2013-07-21 19:23:00,
2013-07-21 15:28:00,76.3,35.7,26.95,ESE,117,2.3,0.0,23,0.00,CLR,,0.00,WeatherDisplay:10.37,2013-07-21 19:28:00,
2013-07-21 15:33:00,77.0,36.3,26.95,ESE,117,0.0,0.0,23,0.00,CLR,,0.00,WeatherDisplay:10.37,2013-07-21 19:33:00,
2013-07-21 15:38:00,77.9,37.1,26.95,ESE,117,3.5,0.0,23,0.00,CLR,,0.00,WeatherDisplay:10.37,2013-07-21 19:38:00,
2013-07-21 15:43:00,78.1,37.3,26.95,ESE,104,3.5,3.5,23,0.00,CLR,,0.00,WeatherDisplay:10.37,2013-07-21 19:43:00,
2013-07-21 15:48:00,78.1,37.3,26.95,SE,136,3.5,0.0,23,0.00,CLR,,0.00,WeatherDisplay:10.37,2013-07-21 19:48:00,
2013-07-21 15:53:00,78.4,37.6,26.95,SSE,147,3.5,0.0,23,0.00,CLR,,0.00,WeatherDisplay:10.37,2013-07-21 19:53:00,
2013-07-21 15:58:00,78.6,37.7,26.95,SE,140,0.0,0.0,23,0.00,CLR,,0.00,WeatherDisplay:10.37,2013-07-21 19:58:00,
2013-07-21 16:03:00,78.8,36.7,26.95,SE,140,0.0,0.0,22,0.00,CLR,,0.00,WeatherDisplay:10.37,2013-07-21 20:03:00,
2013-07-21 16:08:00,79.0,36.9,26.95,East,83,2.3,0.0,22,0.00,CLR,,0.00,WeatherDisplay:10.37,2013-07-21 20:08:00,
2013-07-21 16:13:00,79.3,37.2,26.95,East,82,0.0,0.0,22,0.00,CLR,,0.00,WeatherDisplay:10.37,2013-07-21 20:13:00,
2013-07-21 16:18:00,81.0,38.5,26.95,SSE,152,3.5,3.5,22,0.00,CLR,,0.00,WeatherDisplay:10.37,2013-07-21 20:18:00,
2013-07-21 16:23:00,80.4,38.1,26.95,SE,132,3.5,3.5,22,0.00,CLR,,0.00,WeatherDisplay:10.37,2013-07-21 20:23:00,
2013-07-21 16:28:00,79.5,37.3,26.95,SE,139,0.0,0.0,22,0.00,CLR,,0.00,WeatherDisplay:10.37,2013-07-21 20:28:00,
2013-07-21 16:33:00,79.2,37.0,26.95,SE,139,0.0,0.0,22,0.00,CLR,,0.00,WeatherDisplay:10.37,2013-07-21 20:33:00,
2013-07-21 16:38:00,79.3,37.2,26.95,East,97,0.0,0.0,22,0.00,CLR,,0.00,WeatherDisplay:10.37,2013-07-21 20:38:00,
2013-07-21 16:43:00,78.8,36.7,26.95,East,97,0.0,0.0,22,0.00,CLR,,0.00,WeatherDisplay:10.37,2013-07-21 20:43:00,
2013-07-21 16:48:00,78.1,37.3,26.95,WNW,283,0.0,0.0,23,0.00,CLR,,0.00,WeatherDisplay:10.37,2013-07-21 20:48:00,
2013-07-21 16:53:00,77.5,36.8,26.95,WNW,283,0.0,0.0,23,0.00,CLR,,0.00,WeatherDisplay:10.37,2013-07-21 20:53:00,
2013-07-21 16:58:00,76.8,36.2,26.95,WNW,283,0.0,0.0,23,0.00,CLR,,0.00,WeatherDisplay:10.37,2013-07-21 20:58:00,
2013-07-21 17:03:00,76.6,36.0,26.95,WNW,283,0.0,0.0,23,0.00,CLR,,0.00,WeatherDisplay:10.37,2013-07-21 21:03:00,
2013-07-21 17:08:00,76.8,36.2,26.95,SW,216,0.0,0.0,23,0.00,CLR,,0.00,WeatherDisplay:10.37,2013-07-21 21:08:00,
2013-07-21 17:13:00,77.0,36.3,26.95,SW,216,0.0,0.0,23,0.00,CLR,,0.00,WeatherDisplay:10.37,2013-07-21 21:13:00,
2013-07-21 17:18:00,77.2,36.5,26.95,ESE,112,0.0,0.0,23,0.00,CLR,,0.00,WeatherDisplay:10.37,2013-07-21 21:18:00,
2013-07-21 17:23:00,77.0,36.3,26.95,ESE,113,2.3,0.0,23,0.00,CLR,,0.00,WeatherDisplay:10.37,2013-07-21 21:23:00,
2013-07-21 17:28:00,77.0,36.3,26.95,ESE,112,0.0,0.0,23,0.00,CLR,,0.00,WeatherDisplay:10.37,2013-07-21 21:28:00,
2013-07-21 17:33:00,77.0,36.3,26.95,ESE,109,2.3,0.0,23,0.00,CLR,,0.00,WeatherDisplay:10.37,2013-07-21 21:33:00,
2013-07-21 17:38:00,76.8,36.2,26.95,SSE,149,2.3,0.0,23,0.00,CLR,,0.00,WeatherDisplay:10.37,2013-07-21 21:38:00,
2013-07-21 17:43:00,76.8,36.2,26.95,NE,48,0.0,0.0,23,0.00,CLR,,0.00,WeatherDisplay:10.37,2013-07-21 21:43:00,
2013-07-21 17:48:00,76.6,38.2,26.95,East,83,2.3,0.0,25,0.00,CLR,,0.00,WeatherDisplay:10.37,2013-07-21 21:48:00,
2013-07-21 17:53:00,76.3,37.9,26.95,ESE,109,0.0,0.0,25,0.00,CLR,,0.00,WeatherDisplay:10.37,2013-07-21 21:53:00,
2013-07-21 17:58:00,76.3,37.9,26.95,SE,138,0.0,0.0,25,0.00,CLR,,0.00,WeatherDisplay:10.37,2013-07-21 21:58:00,
2013-07-21 18:03:00,76.3,37.9,26.95,SSE,166,0.0,0.0,25,0.00,CLR,,0.00,WeatherDisplay:10.37,2013-07-21 22:03:00,
2013-07-21 18:08:00,76.1,37.7,26.95,ESE,110,2.3,0.0,25,0.00,CLR,,0.00,WeatherDisplay:10.37,2013-07-21 22:08:00,
2013-07-21 18:13:00,75.9,37.6,26.95,ESE,114,2.3,0.0,25,0.00,CLR,,0.00,WeatherDisplay:10.37,2013-07-21 22:13:00,
2013-07-21 18:18:00,75.4,37.1,26.95,ESE,114,0.0,0.0,25,0.00,CLR,,0.00,WeatherDisplay:10.37,2013-07-21 22:18:00,
2013-07-21 18:23:00,75.0,37.8,26.95,ESE,114,0.0,0.0,26,0.00,CLR,,0.00,WeatherDisplay:10.37,2013-07-21 22:23:00,
2013-07-21 18:28:00,74.7,37.5,26.95,ESE,114,0.0,0.0,26,0.00,CLR,,0.00,WeatherDisplay:10.37,2013-07-21 22:28:00,
2013-07-21 18:33:00,74.5,37.3,26.95,ESE,114,0.0,0.0,26,0.00,CLR,,0.00,WeatherDisplay:10.37,2013-07-21 22:33:00,
2013-07-21 18:38:00,74.3,37.2,26.95,SE,124,0.0,0.0,26,0.00,CLR,,0.00,WeatherDisplay:10.37,2013-07-21 22:38:00,
2013-07-21 18:43:00,74.3,37.2,26.95,SE,124,0.0,0.0,26,0.00,CLR,,0.00,WeatherDisplay:10.37,2013-07-21 22:43:00,
2013-07-21 18:48:00,74.3,37.2,26.95,SE,124,0.0,0.0,26,0.00,CLR,,0.00,WeatherDisplay:10.37,2013-07-21 22:48:00,
2013-07-21 18:53:00,74.3,37.2,26.95,SE,124,0.0,0.0,26,0.00,CLR,,0.00,WeatherDisplay:10.37,2013-07-21 22:53:00,
2013-07-21 18:58:00,74.3,39.1,26.95,SE,124,0.0,0.0,28,0.00,CLR,,0.00,WeatherDisplay:10.37,2013-07-21 22:58:00,
2013-07-21 19:03:00,74.3,39.1,26.95,SE,139,0.0,0.0,28,0.00,CLR,,0.00,WeatherDisplay:10.37,2013-07-21 23:03:00,
2013-07-21 19:08:00,74.3,37.2,26.95,SE,139,0.0,0.0,26,0.00,CLR,,0.00,WeatherDisplay:10.37,2013-07-21 23:08:00,
2013-07-21 19:13:00,74.5,37.3,26.95,SE,139,0.0,0.0,26,0.00,CLR,,0.00,WeatherDisplay:10.37,2013-07-21 23:13:00,
2013-07-21 19:18:00,74.5,37.3,26.95,SE,139,0.0,0.0,26,0.00,CLR,,0.00,WeatherDisplay:10.37,2013-07-21 23:18:00,
2013-07-21 19:23:00,74.5,37.3,26.95,SE,137,0.0,0.0,26,0.00,CLR,,0.00,WeatherDisplay:10.37,2013-07-21 23:23:00,
2013-07-21 19:28:00,74.5,37.3,26.95,SE,127,0.0,0.0,26,0.00,CLR,,0.00,WeatherDisplay:10.37,2013-07-21 23:28:00,
2013-07-21 19:33:00,74.5,37.3,26.95,SE,144,0.0,0.0,26,0.00,CLR,,0.00,WeatherDisplay:10.37,2013-07-21 23:33:00,
2013-07-21 19:38:00,74.1,38.9,26.95,SE,144,0.0,0.0,28,0.00,CLR,,0.00,WeatherDisplay:10.37,2013-07-21 23:38:00,
2013-07-21 19:43:00,73.9,36.9,26.95,SE,144,0.0,0.0,26,0.00,CLR,,0.00,WeatherDisplay:10.37,2013-07-21 23:43:00,
2013-07-21 19:48:00,73.8,36.7,26.95,SE,144,0.0,0.0,26,0.00,CLR,,0.00,WeatherDisplay:10.37,2013-07-21 23:48:00,
2013-07-21 19:53:00,73.4,36.4,26.95,SE,144,0.0,0.0,26,0.00,CLR,,0.00,WeatherDisplay:10.37,2013-07-21 23:53:00,
2013-07-21 19:58:00,73.2,36.3,26.95,SE,144,0.0,0.0,26,0.00,CLR,,0.00,WeatherDisplay:10.37,2013-07-21 23:58:00,
2013-07-21 20:03:00,73.0,38.9,26.95,SE,144,0.0,0.0,29,0.00,CLR,,0.00,WeatherDisplay:10.37,2013-07-22 00:03:00,
2013-07-21 20:08:00,72.7,38.6,26.95,SE,144,0.0,0.0,29,0.00,CLR,,0.00,WeatherDisplay:10.37,2013-07-22 00:08:00,
2013-07-21 20:13:00,72.5,38.4,26.95,SE,144,0.0,0.0,29,0.00,CLR,,0.00,WeatherDisplay:10.37,2013-07-22 00:13:00,
2013-07-21 20:18:00,72.3,38.3,26.95,SE,144,0.0,0.0,29,0.00,CLR,,0.00,WeatherDisplay:10.37,2013-07-22 00:18:00,
2013-07-21 20:23:00,72.1,38.1,26.95,SE,144,0.0,0.0,29,0.00,CLR,,0.00,WeatherDisplay:10.37,2013-07-22 00:23:00,
2013-07-21 20:28:00,72.0,39.7,26.95,SE,144,0.0,0.0,31,0.00,CLR,,0.00,WeatherDisplay:10.37,2013-07-22 00:28:00,
2013-07-21 20:33:00,72.0,39.7,26.95,SE,144,0.0,0.0,31,0.00,CLR,,0.00,WeatherDisplay:10.37,2013-07-22 00:33:00,
2013-07-21 20:38:00,71.8,39.5,26.95,SE,144,0.0,0.0,31,0.00,CLR,,0.00,WeatherDisplay:10.37,2013-07-22 00:38:00,
2013-07-21 20:43:00,72.0,39.7,26.95,SE,144,0.0,0.0,31,0.00,CLR,,0.00,WeatherDisplay:10.37,2013-07-22 00:43:00,
2013-07-21 20:48:00,72.0,39.7,26.95,ESE,108,0.0,0.0,31,0.00,CLR,,0.00,WeatherDisplay:10.37,2013-07-22 00:48:00,
2013-07-21 20:53:00,71.8,39.5,26.95,ESE,108,0.0,0.0,31,0.00,CLR,,0.00,WeatherDisplay:10.37,2013-07-22 00:53:00,
2013-07-21 20:58:00,72.0,40.5,26.95,ESE,108,0.0,0.0,32,0.00,CLR,,0.00,WeatherDisplay:10.37,2013-07-22 00:58:00,
2013-07-21 21:03:00,71.8,40.3,26.95,ESE,108,0.0,0.0,32,0.00,CLR,,0.00,WeatherDisplay:10.37,2013-07-22 01:03:00,
2013-07-21 21:08:00,71.6,40.2,26.95,ESE,108,0.0,0.0,32,0.00,CLR,,0.00,WeatherDisplay:10.37,2013-07-22 01:08:00,
2013-07-21 21:13:00,71.4,40.0,26.95,ESE,108,0.0,0.0,32,0.00,CLR,,0.00,WeatherDisplay:10.37,2013-07-22 01:13:00,
2013-07-21 21:18:00,71.2,39.9,26.95,ESE,108,0.0,0.0,32,0.00,CLR,,0.00,WeatherDisplay:10.37,2013-07-22 01:18:00,
2013-07-21 21:23:00,70.9,39.5,26.95,ESE,108,0.0,0.0,32,0.00,CLR,,0.00,WeatherDisplay:10.37,2013-07-22 01:23:00,
2013-07-21 21:28:00,70.7,39.4,26.95,ESE,108,0.0,0.0,32,0.00,CLR,,0.00,WeatherDisplay:10.37,2013-07-22 01:28:00,
2013-07-21 21:33:00,70.5,39.2,26.95,ESE,108,0.0,0.0,32,0.00,CLR,,0.00,WeatherDisplay:10.37,2013-07-22 01:33:00,
2013-07-21 21:38:00,70.3,39.1,26.95,ESE,108,0.0,0.0,32,0.00,CLR,,0.00,WeatherDisplay:10.37,2013-07-22 01:38:00,
2013-07-21 21:43:00,70.2,39.7,26.95,ESE,108,0.0,0.0,33,0.00,CLR,,0.00,WeatherDisplay:10.37,2013-07-22 01:43:00,
2013-07-21 21:48:00,70.0,39.5,26.95,ESE,108,0.0,0.0,33,0.00,CLR,,0.00,WeatherDisplay:10.37,2013-07-22 01:48:00,
2013-07-21 21:53:00,70.0,39.5,26.95,ESE,108,0.0,0.0,33,0.00,CLR,,0.00,WeatherDisplay:10.37,2013-07-22 01:53:00,
2013-07-21 21:58:00,70.0,40.3,26.95,ESE,108,0.0,0.0,34,0.00,CLR,,0.00,WeatherDisplay:10.37,2013-07-22 01:58:00,
2013-07-21 22:03:00,69.8,40.2,26.95,ESE,108,0.0,0.0,34,0.00,CLR,,0.00,WeatherDisplay:10.37,2013-07-22 02:03:00,
2013-07-21 22:08:00,69.6,40.7,26.95,ESE,108,0.0,0.0,35,0.00,CLR,,0.00,WeatherDisplay:10.37,2013-07-22 02:08:00,
2013-07-21 22:13:00,69.6,40.7,26.95,ESE,108,0.0,0.0,35,0.00,CLR,,0.00,WeatherDisplay:10.37,2013-07-22 02:13:00,
2013-07-21 22:18:00,69.6,40.7,26.95,ESE,108,0.0,0.0,35,0.00,CLR,,0.00,WeatherDisplay:10.37,2013-07-22 02:18:00,
2013-07-21 22:23:00,69.6,40.7,26.95,ESE,108,0.0,0.0,35,0.00,CLR,,0.00,WeatherDisplay:10.37,2013-07-22 02:23:00,
2013-07-21 22:28:00,69.4,40.6,26.95,ESE,108,0.0,0.0,35,0.00,CLR,,0.00,WeatherDisplay:10.37,2013-07-22 02:28:00,
2013-07-21 22:33:00,69.3,41.2,26.95,ESE,108,0.0,0.0,36,0.00,CLR,,0.00,WeatherDisplay:10.37,2013-07-22 02:33:00,
2013-07-21 22:38:00,69.1,41.0,26.95,ESE,108,0.0,0.0,36,0.00,CLR,,0.00,WeatherDisplay:10.37,2013-07-22 02:38:00,
2013-07-21 22:43:00,68.9,40.8,26.95,ESE,108,0.0,0.0,36,0.00,CLR,,0.00,WeatherDisplay:10.37,2013-07-22 02:43:00,
2013-07-21 22:48:00,68.9,40.8,26.95,ESE,108,0.0,0.0,36,0.00,CLR,,0.00,WeatherDisplay:10.37,2013-07-22 02:48:00,
2013-07-21 22:53:00,68.7,40.7,26.95,ESE,108,0.0,0.0,36,0.00,CLR,,0.00,WeatherDisplay:10.37,2013-07-22 02:53:00,
2013-07-21 22:58:00,68.5,41.2,26.95,ESE,108,0.0,0.0,37,0.00,CLR,,0.00,WeatherDisplay:10.37,2013-07-22 02:58:00,
2013-07-21 23:03:00,68.4,41.8,26.95,ESE,108,0.0,0.0,38,0.00,CLR,,0.00,WeatherDisplay:10.37,2013-07-22 03:03:00,
2013-07-21 23:08:00,68.4,41.8,26.95,ESE,108,0.0,0.0,38,0.00,CLR,,0.00,WeatherDisplay:10.37,2013-07-22 03:08:00,
2013-07-21 23:13:00,68.2,42.3,26.95,ESE,108,0.0,0.0,39,0.00,CLR,,0.00,WeatherDisplay:10.37,2013-07-22 03:13:00,
2013-07-21 23:18:00,68.2,43.6,26.95,ESE,108,0.0,0.0,41,0.00,CLR,,0.00,WeatherDisplay:10.37,2013-07-22 03:18:00,
2013-07-21 23:23:00,68.0,44.0,26.95,ESE,108,0.0,0.0,42,0.00,CLR,,0.00,WeatherDisplay:10.37,2013-07-22 03:23:00,
2013-07-21 23:28:00,68.0,44.0,26.95,ESE,108,0.0,0.0,42,0.00,CLR,,0.00,WeatherDisplay:10.37,2013-07-22 03:28:00,
2013-07-21 23:33:00,68.0,44.0,26.95,ESE,108,0.0,0.0,42,0.00,CLR,,0.00,WeatherDisplay:10.37,2013-07-22 03:33:00,
2013-07-21 23:38:00,67.8,44.5,26.95,ESE,108,0.0,0.0,43,0.00,CLR,,0.00,WeatherDisplay:10.37,2013-07-22 03:38:00,
2013-07-21 23:43:00,67.6,44.3,26.95,ESE,108,0.0,0.0,43,0.00,CLR,,0.00,WeatherDisplay:10.37,2013-07-22 03:43:00,
2013-07-21 23:48:00,67.6,44.3,26.95,ESE,108,0.0,0.0,43,0.00,CLR,,0.00,WeatherDisplay:10.37,2013-07-22 03:48:00,
2013-07-21 23:53:00,67.6,44.3,26.95,ESE,108,0.0,0.0,43,0.00,CLR,,0.00,WeatherDisplay:10.37,2013-07-22 03:53:00,
2013-07-21 23:58:00,67.5,44.2,26.95,ESE,108,0.0,0.0,43,0.00,CLR,,0.00,WeatherDisplay:10.37,2013-07-22 03:58:00,